Kvitbjoern — LM9158 — position and weather

sailwx.info

Track history (hours):
 
Tides and Currents Weather Stations Pressure Air Temp Water Temp Dewpoint Dewpoint Depression Visibility Wind Speed Wind Dir Waves Ship Positions

Kvitbjoern

Last reported at 2014-Jul-23 20:33 UTC. Time now 2014-Jul-25 01:34 UTC.
Position N 66°22' E 012°21'.

Length 10 m.

Type: Fishing. MMSI: 257454420.

Date/timePositionNaut miles runAvg speedWind from/ knotsBaromVisibWave heightAir tempDewpointWater temp
2014-Jul-23 20:33N 66°22' E 012°21'0 0.0
2014-Jul-23 19:33N 66°22' E 012°21'2 1.6
2014-Jul-23 18:27N 66°24' E 012°19'2 0.6
2014-Jul-23 15:03N 66°22' E 012°18'0 0.5
2014-Jul-23 14:33N 66°22' E 012°18'1 1.2
2014-Jul-23 13:27N 66°22' E 012°21'0 0.0
2014-Jul-22 20:22N 66°22' E 012°21'2 2.4
2014-Jul-22 19:33N 66°23' E 012°25'2 1.9
2014-Jul-22 18:31N 66°22' E 012°21'0 0.0
2014-Jul-22 17:31N 66°22' E 012°21'0 0.0
2014-Jul-22 16:31N 66°22' E 012°21'0 0.0
2014-Jul-22 15:31N 66°22' E 012°21'0 0.0
2014-Jul-22 14:31N 66°22' E 012°21'0 0.0
2014-Jul-22 13:31N 66°22' E 012°21'0 0.4
2014-Jul-22 12:33N 66°23' E 012°21'0 0.1
2014-Jul-22 07:30N 66°22' E 012°21'0 0.0
2014-Jul-21 19:55N 66°22' E 012°21'0 0.0
2014-Jul-21 19:31N 66°22' E 012°21'0 0.0
2014-Jul-21 18:31N 66°22' E 012°21'0 0.2
2014-Jul-21 17:28N 66°22' E 012°22'1 0.6
2014-Jul-21 15:33N 66°23' E 012°21'2 1.6
2014-Jul-21 14:32N 66°23' E 012°25'1 0.1
2014-Jul-20 17:33N 66°22' E 012°22'3 2.2
2014-Jul-20 16:14N 66°20' E 012°22'0 0.3
2014-Jul-20 15:31N 66°20' E 012°22'1 1.2
2014-Jul-20 14:20N 66°19' E 012°20'1 1.0
2014-Jul-20 13:22N 66°19' E 012°21'3 3.7
2014-Jul-20 12:33N 66°22' E 012°21'1 0.0
2014-Jul-19 19:30N 66°22' E 012°23'1 0.7
2014-Jul-19 18:32N 66°22' E 012°21'1 0.8
2014-Jul-19 17:33N 66°23' E 012°23'  
2014-Jul-15 17:33N 66°23' E 012°24'1 0.7
2014-Jul-15 16:33N 66°22' E 012°23'1 0.0
2014-Jul-15 02:11N 66°22' E 012°21'0 0.0
2014-Jul-15 01:29N 66°22' E 012°21'0 0.0
2014-Jul-15 00:29N 66°22' E 012°21'6 0.8
2014-Jul-14 17:11N 66°22' E 012°07'4 2.4
2014-Jul-14 15:33N 66°23' E 012°16'3 2.9
2014-Jul-14 14:31N 66°23' E 012°24'2 1.5
2014-Jul-14 13:29N 66°25' E 012°24'  
Track history (hours):
 
Tides and Currents Weather Stations Pressure Air Temp Water Temp Dewpoint Dewpoint Depression Visibility Wind Speed Wind Dir Waves Ship Positions

Kvitbjoern

Last reported at 2014-Jul-23 20:33 UTC. Time now 2014-Jul-25 01:34 UTC.
Position N 66°22' E 012°21'.

Length 10 m.

Type: Fishing. MMSI: 257454420.

Date/timePositionNaut miles runAvg speedWind from/ knotsBaromVisibWave heightAir tempDewpointWater temp
2014-Jul-23 20:33N 66°22' E 012°21'0 0.0
2014-Jul-23 19:33N 66°22' E 012°21'2 1.6
2014-Jul-23 18:27N 66°24' E 012°19'2 0.6
2014-Jul-23 15:03N 66°22' E 012°18'0 0.5
2014-Jul-23 14:33N 66°22' E 012°18'1 1.2
2014-Jul-23 13:27N 66°22' E 012°21'0 0.0
2014-Jul-22 20:22N 66°22' E 012°21'2 2.4
2014-Jul-22 19:33N 66°23' E 012°25'2 1.9
2014-Jul-22 18:31N 66°22' E 012°21'0 0.0
2014-Jul-22 17:31N 66°22' E 012°21'0 0.0
2014-Jul-22 16:31N 66°22' E 012°21'0 0.0
2014-Jul-22 15:31N 66°22' E 012°21'0 0.0
2014-Jul-22 14:31N 66°22' E 012°21'0 0.0
2014-Jul-22 13:31N 66°22' E 012°21'0 0.4
2014-Jul-22 12:33N 66°23' E 012°21'0 0.1
2014-Jul-22 07:30N 66°22' E 012°21'0 0.0
2014-Jul-21 19:55N 66°22' E 012°21'0 0.0
2014-Jul-21 19:31N 66°22' E 012°21'0 0.0
2014-Jul-21 18:31N 66°22' E 012°21'0 0.2
2014-Jul-21 17:28N 66°22' E 012°22'1 0.6
2014-Jul-21 15:33N 66°23' E 012°21'2 1.6
2014-Jul-21 14:32N 66°23' E 012°25'1 0.1
2014-Jul-20 17:33N 66°22' E 012°22'3 2.2
2014-Jul-20 16:14N 66°20' E 012°22'0 0.3
2014-Jul-20 15:31N 66°20' E 012°22'1 1.2
2014-Jul-20 14:20N 66°19' E 012°20'1 1.0
2014-Jul-20 13:22N 66°19' E 012°21'3 3.7
2014-Jul-20 12:33N 66°22' E 012°21'1 0.0
2014-Jul-19 19:30N 66°22' E 012°23'1 0.7
2014-Jul-19 18:32N 66°22' E 012°21'1 0.8
2014-Jul-19 17:33N 66°23' E 012°23'  
2014-Jul-15 17:33N 66°23' E 012°24'1 0.7
2014-Jul-15 16:33N 66°22' E 012°23'1 0.0
2014-Jul-15 02:11N 66°22' E 012°21'0 0.0
2014-Jul-15 01:29N 66°22' E 012°21'0 0.0
2014-Jul-15 00:29N 66°22' E 012°21'6 0.8
2014-Jul-14 17:11N 66°22' E 012°07'4 2.4
2014-Jul-14 15:33N 66°23' E 012°16'3 2.9
2014-Jul-14 14:31N 66°23' E 012°24'2 1.5
2014-Jul-14 13:29N 66°25' E 012°24'  

Dump ship's entire track history